Content
SEND FEEDBACK

Daily
Averages
Monthly
Summary
India

LUCKNOW, INDIA


Home > Asia > India
Elevation: 400 feet     Latitude: 26 45N     Longitude: 080 52E

WEATHER
 
SELECT A DAY
Number of Records: 123,583;   Date Range: 7/2/96 - 4/16/14
 
SHARE

PRINT THIS DATA

[ ← Previous Day ]
WEATHER ALMANAC - MAY 9, 2013
[ Next Day → ]
[ °C ]   °F
Weather ElementAverageHighLow
Temperature96.3 °F109.4 °F (2:30 pm)78.8 °F (6:00 am)
Dewpoint60.8 °F71.6 °F (4:00 pm)51.8 °F (1:00 am)
Humidity31 %42 % (5:30 am)22 % (1:00 pm)
Barometer29.53 in29.60 in (8:30 am)29.47 in (4:00 pm)
Wind Speed8.2 mph15 mph (3:30 pm)
Weather ElementAverage
Visibility3.1 mi
Wind DirectionWSW (257.3 °)

Weather ElementTotal
Precipitation---
Cooling Degree Days29.1 (Base 65)
Growing Degree Days44.1 (Base 50)
Averaged from 30 records on May 9, 2013
WEATHER CONDITIONS BREAKOUT
WIND DIRECTION BREAKOUT
WEATHER BY HOUR - MAY 9, 2013
[ °C ]   °F
Local TimeTemperatureDewpointHumidityBarometerVisibilityWind DirectionWind SpeedGust SpeedPrecipitationEventsConditions
1:00 AM86.0 °F51.8 °F31 %29.50 in2.5 miNW (320°)4.6 mphHaze
2:00 AM86.0 °F51.8 °F31 %29.50 in2.5 miWest (270°)4.6 mphHaze
3:00 AM82.4 °F53.6 °F37 %29.50 in2.5 miWest (270°)4.6 mphHaze
5:00 AM80.6 °F53.6 °F39 %29.50 in2.5 miVariable2.3 mphHaze
5:30 AM80.6 °F55.4 °F42 %29.53 in2.5 miVariable2.3 mphHaze
6:00 AM78.8 °F53.6 °F42 %29.53 in2.5 miCalmHaze
6:30 AM80.6 °F55.4 °F42 %29.53 in2.5 miVariable2.3 mphHaze
7:00 AM82.4 °F55.4 °F39 %29.56 in2.5 miWSW (250°)6.9 mphHaze
7:30 AM86.0 °F57.2 °F37 %29.59 in2.5 miNNW (330°)3.5 mphHaze
8:00 AM87.8 °F57.2 °F35 %29.59 in2.5 miNW (320°)3.5 mphHaze
8:30 AM90.0 °F59.0 °F25 %29.60 in2.0 miNW (320°)4.6 mphHaze
8:30 AM89.6 °F59.0 °F36 %29.59 in2.5 miNW (320°)4.6 mphHaze
11:30 AM104.0 °F60.8 °F24 %29.59 in3.1 miWNW (290°)9.2 mphHaze
12:00 PM104.0 °F60.8 °F24 %29.59 in3.1 miWNW (300°)8.1 mphHaze
12:30 PM105.8 °F60.8 °F23 %29.59 in3.1 miWNW (290°)13.8 mphHaze
1:00 PM107.6 °F60.8 °F22 %29.56 in3.1 miWNW (290°)11.5 mphHaze
1:30 PM107.6 °F62.6 °F23 %29.56 in3.7 miNW (320°)10.4 mph
2:00 PM107.6 °F66.2 °F26 %29.53 in3.7 miNW (320°)13.8 mph
2:30 PM109.4 °F68.0 °F27 %29.53 in3.7 miNW (320°)13.8 mph
3:00 PM107.6 °F69.8 °F30 %29.50 in3.7 miWNW (290°)13.8 mph
3:30 PM107.6 °F69.8 °F30 %29.50 in3.7 miNW (310°)15.0 mphPartly Cloudy
4:00 PM107.6 °F71.6 °F32 %29.47 in3.7 miWNW (300°)12.7 mphPartly Cloudy
4:30 PM107.6 °F71.6 °F32 %29.47 in3.7 miWest (280°)15.0 mphPartly Cloudy
5:00 PM107.6 °F71.6 °F32 %29.47 in3.7 miWNW (290°)12.7 mph
5:30 PM105.8 °F69.8 °F31 %29.47 in3.7 miWNW (290°)15.0 mph
6:00 PM104.0 °F68.0 °F31 %29.47 in3.7 miWNW (290°)11.5 mph
7:00 PM100.4 °F60.8 °F27 %29.50 in3.7 miWest (280°)6.9 mph
7:30 PM96.8 °F60.8 °F30 %29.50 in3.7 miWest (270°)6.9 mph
9:00 PM95.0 °F53.6 °F25 %29.53 in3.1 miWest (280°)5.8 mphHaze
10:00 PM93.2 °F53.6 °F26 %29.56 in3.1 miNW (310°)6.9 mphHaze
Hourly data recorded from VILK, located 1.46 miles away from Lucknow, India







STORIES FROM OUR PARTNERS